Starlink 4044

operational
NORAD ID: 52662 Int'l Des: 2022-053 Owner: SPXS Country: US Constellation: starlink
LEOCIRCULAR

Starlink 4044について

説明を読み込み中...

リアルタイム位置

3D地球を読み込み中...

次回通過

高度履歴

Altitude vs Time

uPlot chart will show altitude changes over time

軌道要素

1 52662U 22053G 25350.81018151 -.00000120 00000-0 10583-4 0 9998
2 52662 53.2178 166.1835 0001864 79.8607 280.2596 15.08842970198537
Epoch: Dec 16, 2025 • Age: 15 hours

現在のステータス

高度 540.7 km
速度 7.60 km/s
衛星直下点 29.69°N, 76.33°E
打ち上げ日 May 18, 2022
運用期間 3.5 years
タイプ internet

技術仕様

分類 Payload
質量 297.00 kg
乾燥質量 275.00 kg
総質量 297.00 kg
長さ 0.20 m
直径 2.80 m
スパン 9.00 m
形状 Box + pan
製造者 SPXS
バスタイプ Starlink
フェーズステータス In Orbit
所有者/国 SPXS/US

大規模コンステレーション

Loading constellations...